Regional Weather Roundup
Issued by NWS

Home | Current Version | Previous Version | Graphics & Text | Print | Product List | Glossary On
Versions: 1 2 3 4 5 6 7 8 9 10 11 12 13 14 15 16 17 18 19 20 21 22 23 24 25 26 27 28 29 30 31 32 33 34 35 36 37 38 39 40 41 42 43 44 45 46 47 48 49 50
000
ASUS43 KOAX 290402
RWRNE

WEATHER ROUNDUP FOR NEBRASKA
NATIONAL WEATHER SERVICE OMAHA NE
1000 PM CST FRI NOV 28 2014

NOTES: SATELLITE DATA IS BEING USED TO AUGMENT CLOUD COVER ABOVE
       12000 FEET.
       "FAIR" INDICATES FEW OR NO CLOUDS BELOW 12,000 FEET WITH NO
       SIGNIFICANT WEATHER AND/OR OBSTRUCTIONS TO VISIBILITY.

  * THESE STATIONS DO NOT REPORT WEATHER SUCH AS RAIN...SNOW OR FOG.

NEZ001>004-019>022-054>056-290500-
NEBRASKA PANHANDLE

CITY           SKY/WX    TMP DP  RH WIND       PRES   REMARKS
SCOTTSBLUFF    CLOUDY    55  18  23 W14       29.68F
ALLIANCE       MOCLDY    34  18  52 SW12      29.67F WCI  25
CHADRON        PTCLDY   N/A N/A N/A SW15      29.59F
SIDNEY         CLOUDY    48  19  31 W16G23    29.72F
$$

NEZ057>060-069>072-079>082-290500-
SOUTHWEST NEBRASKA

CITY           SKY/WX    TMP DP  RH WIND       PRES   REMARKS
NORTH PLATTE   MOCLDY    30  21  69 NW5       29.67F WCI  25
IMPERIAL       CLOUDY    38  18  44 SW5       29.72S WCI  34
MCCOOK         MOCLDY    40  13  33 W6        29.70S
$$

NEZ005>010-023>029-035>040-094-290500-
NORTH CENTRAL NEBRASKA

CITY           SKY/WX    TMP DP  RH WIND       PRES   REMARKS
VALENTINE      MOCLDY    43  25  49 SW10      29.55F
AINSWORTH      MOCLDY    46  22  38 SW10      29.56F
BROKEN BOW     PTCLDY    50  22  33 W7        29.64R
ORD            MOCLDY    32  19  58 CALM      29.60S
$$

NEZ041-046>049-061>064-073>077-083>087-290500-
SOUTH CENTRAL NEBRASKA

CITY           SKY/WX    TMP DP  RH WIND       PRES   REMARKS
GRAND ISLAND   MOCLDY    45  22  40 SW7       29.63S
AURORA         MOCLDY    39  24  53 SW7       29.62F WCI  34
HASTINGS       MOCLDY    49  18  29 SW8       29.64F
KEARNEY *      MOCLDY    45  18  33 SW12      29.66F
YORK           PTCLDY    45  30  57 SW10      29.63S
$$

NEZ011>018-030>034-042>045-290500-
NORTHEAST NEBRASKA

CITY           SKY/WX    TMP DP  RH WIND       PRES   REMARKS
NORFOLK        MOCLDY    37  29  72 W3        29.58S
BLAIR          MOCLDY    44  32  63 S7        29.59F
COLUMBUS *     MOCLDY    34  25  69 CALM      29.61S
TEKAMAH        MOCLDY    32  25  75 S6        29.59F WCI  26
$$

NEZ050>053-065>068-078-088>093-290500-
SOUTHEAST NEBRASKA

CITY           SKY/WX    TMP DP  RH WIND       PRES   REMARKS
LINCOLN        PTCLDY    47  32  56 E3        29.64S
OMAHA EPPLEY   MOCLDY    40  31  70 SE10      29.62F WCI  33
FALLS CITY     CLOUDY    53  36  52 SW23G29   29.66F
NEBRASKA CITY  FAIR      49  31  50 SW15      29.63S
$$

NEZ044-045-051>053-067-290500-
OMAHA AREA

CITY           SKY/WX    TMP DP  RH WIND       PRES   REMARKS
OMAHA EPPLEY   MOCLDY    40  31  70 SE10      29.62F WCI  33
BLAIR          MOCLDY    44  32  63 S7        29.59F
MILLARD        PTCLDY    37  31  78 CALM      29.62S
OFFUTT AFB     MOCLDY    32  28  85 E3        29.62S
WAHOO          FAIR      46  31  54 S5        29.60S
$$


USA.gov is the U.S. government's official web portal to all federal, state and local government web resources and services.